Time,TemperatureF,DewpointF,PressureIn,WindDirection,WindDirectionDegrees,WindSpeedMPH,WindSpeedGustMPH,Humidity,HourlyPrecipIn,Conditions,Clouds,dailyrainin,SolarRadiationWatts/m^2,SoftwareType,DateUTC
2013-02-19 00:00:00,36.3,23.8,30.29,South,183,0.0,0.0,60,0.00,,---,0.03,0.00,VWS V14.00,2013-02-19 05:00:00,
2013-02-19 00:01:00,36.2,23.7,30.28,South,183,0.0,0.0,60,0.00,,---,0.00,0.00,VWS V14.00,2013-02-19 05:01:00,
2013-02-19 00:05:00,35.9,23.8,30.28,South,183,0.0,1.0,61,0.00,,---,0.00,0.00,VWS V14.00,2013-02-19 05:05:00,
2013-02-19 00:10:00,35.8,23.7,30.28,South,183,0.0,1.0,61,0.00,,---,0.00,0.00,VWS V14.00,2013-02-19 05:10:00,
2013-02-19 00:15:00,35.5,23.8,30.28,South,183,0.0,2.0,62,0.00,,---,0.00,0.00,VWS V14.00,2013-02-19 05:15:00,
2013-02-19 00:20:00,35.3,23.6,30.27,South,183,0.0,2.0,62,0.00,,---,0.00,0.00,VWS V14.00,2013-02-19 05:20:00,
2013-02-19 00:25:00,35.0,23.7,30.27,SSE,161,0.0,2.0,63,0.00,,---,0.00,0.00,VWS V14.00,2013-02-19 05:25:00,
2013-02-19 00:30:00,34.9,24.0,30.27,SSE,148,0.0,0.0,64,0.00,,---,0.00,0.00,VWS V14.00,2013-02-19 05:30:00,
2013-02-19 00:36:00,34.9,24.3,30.26,SSE,157,2.0,2.0,65,0.00,,---,0.00,0.00,VWS V14.00,2013-02-19 05:36:00,
2013-02-19 00:41:00,34.9,24.7,30.27,SE,126,1.0,2.0,66,0.00,,---,0.00,0.00,VWS V14.00,2013-02-19 05:41:00,
2013-02-19 00:46:00,35.2,25.4,30.27,SSE,153,0.0,4.0,67,0.00,,---,0.00,0.00,VWS V14.00,2013-02-19 05:46:00,
2013-02-19 00:51:00,35.3,25.1,30.26,SSE,155,1.0,5.0,66,0.00,,---,0.00,0.00,VWS V14.00,2013-02-19 05:51:00,
2013-02-19 00:56:00,35.5,25.3,30.26,SSE,165,3.0,5.0,66,0.00,,---,0.00,0.00,VWS V14.00,2013-02-19 05:56:00,
2013-02-19 01:00:00,35.6,25.4,30.26,East,100,0.0,2.0,66,0.00,,---,0.00,0.00,VWS V14.00,2013-02-19 06:00:00,
2013-02-19 01:06:00,35.8,25.6,30.26,SE,138,2.0,5.0,66,0.00,,---,0.00,0.00,VWS V14.00,2013-02-19 06:06:00,
2013-02-19 01:11:00,35.8,25.6,30.26,SSW,192,0.0,5.0,66,0.00,,---,0.00,0.00,VWS V14.00,2013-02-19 06:11:00,
2013-02-19 01:16:00,35.8,25.6,30.26,SSE,159,0.0,5.0,66,0.00,,---,0.00,0.00,VWS V14.00,2013-02-19 06:16:00,
2013-02-19 01:21:00,35.6,25.4,30.26,South,185,0.0,5.0,66,0.00,,---,0.00,0.00,VWS V14.00,2013-02-19 06:21:00,
2013-02-19 01:26:00,35.5,25.3,30.25,South,173,1.0,5.0,66,0.00,,---,0.00,0.00,VWS V14.00,2013-02-19 06:26:00,
2013-02-19 01:30:00,35.3,25.5,30.25,SSE,150,0.0,5.0,67,0.00,,---,0.00,0.00,VWS V14.00,2013-02-19 06:30:00,
2013-02-19 01:31:00,35.3,25.1,30.25,SSE,150,0.0,0.0,66,0.00,,---,0.00,0.00,VWS V14.00,2013-02-19 06:31:00,
2013-02-19 01:36:00,35.2,25.4,30.25,South,186,0.0,3.0,67,0.00,,---,0.00,0.00,VWS V14.00,2013-02-19 06:36:00,
2013-02-19 01:41:00,35.2,25.4,30.25,SE,141,0.0,3.0,67,0.00,,---,0.00,0.00,VWS V14.00,2013-02-19 06:41:00,
2013-02-19 01:46:00,35.0,25.2,30.25,East,97,0.0,3.0,67,0.00,,---,0.00,0.00,VWS V14.00,2013-02-19 06:46:00,
2013-02-19 01:51:00,35.0,25.2,30.25,ESE,117,0.0,3.0,67,0.00,,---,0.00,0.00,VWS V14.00,2013-02-19 06:51:00,
2013-02-19 01:56:00,34.9,25.1,30.25,ESE,117,0.0,3.0,67,0.00,,---,0.00,0.00,VWS V14.00,2013-02-19 06:56:00,
2013-02-19 02:00:00,34.7,24.9,30.25,ESE,117,0.0,3.0,67,0.00,,---,0.00,0.00,VWS V14.00,2013-02-19 07:00:00,
2013-02-19 02:01:00,34.7,24.9,30.25,ESE,117,0.0,0.0,67,0.00,,---,0.00,0.00,VWS V14.00,2013-02-19 07:01:00,
2013-02-19 02:06:00,34.6,25.1,30.25,ESE,117,0.0,2.0,68,0.00,,---,0.00,0.00,VWS V14.00,2013-02-19 07:06:00,
2013-02-19 02:11:00,34.4,25.3,30.24,SE,129,1.0,2.0,69,0.00,,---,0.00,0.00,VWS V14.00,2013-02-19 07:11:00,
2013-02-19 02:19:00,34.4,25.3,30.24,SSW,192,0.0,3.0,69,0.00,,---,0.00,0.00,VWS V14.00,2013-02-19 07:19:00,
2013-02-19 02:24:00,34.4,25.6,30.24,South,186,0.0,4.0,70,0.00,,---,0.00,0.00,VWS V14.00,2013-02-19 07:24:00,
2013-02-19 02:29:00,34.4,25.6,30.24,SSE,161,0.0,4.0,70,0.00,,---,0.00,0.00,VWS V14.00,2013-02-19 07:29:00,
2013-02-19 02:30:00,34.4,25.6,30.24,SSE,161,0.0,4.0,70,0.00,,---,0.00,0.00,VWS V14.00,2013-02-19 07:30:00,
2013-02-19 02:34:00,34.4,25.6,30.23,WSW,241,0.0,2.0,70,0.00,,---,0.00,0.00,VWS V14.00,2013-02-19 07:34:00,
2013-02-19 02:39:00,34.4,25.6,30.23,SW,215,0.0,2.0,70,0.00,,---,0.00,0.00,VWS V14.00,2013-02-19 07:39:00,
2013-02-19 02:44:00,34.4,25.6,30.23,SW,215,0.0,2.0,70,0.00,,---,0.00,0.00,VWS V14.00,2013-02-19 07:44:00,
2013-02-19 02:49:00,34.3,25.5,30.23,SW,215,0.0,2.0,70,0.00,,---,0.00,0.00,VWS V14.00,2013-02-19 07:49:00,
2013-02-19 02:54:00,34.1,25.4,30.23,SW,215,0.0,2.0,70,0.00,,---,0.00,0.00,VWS V14.00,2013-02-19 07:54:00,
2013-02-19 02:59:00,34.0,25.3,30.22,SW,215,0.0,2.0,70,0.00,,---,0.00,0.00,VWS V14.00,2013-02-19 07:59:00,
2013-02-19 03:00:00,34.0,25.3,30.22,SW,215,0.0,2.0,70,0.00,,---,0.00,0.00,VWS V14.00,2013-02-19 08:00:00,
2013-02-19 03:04:00,34.0,25.6,30.22,SW,215,0.0,1.0,71,0.00,,---,0.00,0.00,VWS V14.00,2013-02-19 08:04:00,
2013-02-19 03:09:00,33.7,25.3,30.22,SW,215,0.0,1.0,71,0.00,,---,0.00,0.00,VWS V14.00,2013-02-19 08:09:00,
2013-02-19 03:14:00,33.7,25.3,30.21,SW,215,0.0,1.0,71,0.00,,---,0.00,0.00,VWS V14.00,2013-02-19 08:14:00,
2013-02-19 03:19:00,33.5,25.5,30.20,SW,215,0.0,1.0,72,0.00,,---,0.00,0.00,VWS V14.00,2013-02-19 08:19:00,
2013-02-19 03:24:00,33.4,25.7,30.20,South,179,2.0,3.0,73,0.00,,---,0.00,0.00,VWS V14.00,2013-02-19 08:24:00,
2013-02-19 03:29:00,33.5,25.8,30.20,SSW,192,0.0,4.0,73,0.00,,---,0.00,0.00,VWS V14.00,2013-02-19 08:29:00,
2013-02-19 03:30:00,33.5,26.1,30.20,SSW,192,0.0,4.0,74,0.00,,---,0.00,0.00,VWS V14.00,2013-02-19 08:30:00,
2013-02-19 03:34:00,33.7,26.3,30.19,SSW,192,0.0,2.0,74,0.00,,---,0.00,0.00,VWS V14.00,2013-02-19 08:34:00,
2013-02-19 03:39:00,33.7,26.3,30.19,SE,144,0.0,3.0,74,0.00,,---,0.00,0.00,VWS V14.00,2013-02-19 08:39:00,
2013-02-19 03:44:00,33.7,26.3,30.19,SSW,203,1.0,3.0,74,0.00,,---,0.00,0.00,VWS V14.00,2013-02-19 08:44:00,
2013-02-19 03:49:00,33.7,26.3,30.19,South,172,0.0,3.0,74,0.00,,---,0.00,0.00,VWS V14.00,2013-02-19 08:49:00,
2013-02-19 03:54:00,33.7,26.3,30.19,South,186,0.0,3.0,74,0.00,,---,0.00,0.00,VWS V14.00,2013-02-19 08:54:00,
2013-02-19 03:59:00,33.7,26.0,30.18,South,186,0.0,3.0,73,0.00,,---,0.00,0.00,VWS V14.00,2013-02-19 08:59:00,
2013-02-19 04:00:00,33.5,25.8,30.18,South,186,0.0,3.0,73,0.00,,---,0.00,0.00,VWS V14.00,2013-02-19 09:00:00,
2013-02-19 04:04:00,33.4,25.7,30.18,South,186,0.0,0.0,73,0.00,,---,0.00,0.00,VWS V14.00,2013-02-19 09:04:00,
2013-02-19 04:09:00,33.2,25.5,30.18,South,186,0.0,1.0,73,0.00,,---,0.00,0.00,VWS V14.00,2013-02-19 09:09:00,
2013-02-19 04:14:00,32.9,25.5,30.17,South,186,0.0,1.0,74,0.00,,---,0.00,0.00,VWS V14.00,2013-02-19 09:14:00,
2013-02-19 04:19:00,32.7,25.3,30.17,South,186,0.0,1.0,74,0.00,,---,0.00,0.00,VWS V14.00,2013-02-19 09:19:00,
2013-02-19 04:24:00,32.4,25.0,30.17,South,186,0.0,1.0,74,0.00,,---,0.00,0.00,VWS V14.00,2013-02-19 09:24:00,
2013-02-19 04:29:00,32.1,25.1,30.17,South,186,0.0,1.0,75,0.00,,---,0.00,0.00,VWS V14.00,2013-02-19 09:29:00,
2013-02-19 04:30:00,32.1,25.1,30.17,South,186,0.0,1.0,75,0.00,,---,0.00,0.00,VWS V14.00,2013-02-19 09:30:00,
2013-02-19 04:34:00,31.9,25.2,30.17,South,186,0.0,0.0,76,0.00,,---,0.00,0.00,VWS V14.00,2013-02-19 09:34:00,
2013-02-19 04:39:00,31.8,25.1,30.18,South,186,0.0,0.0,76,0.00,,---,0.00,0.00,VWS V14.00,2013-02-19 09:39:00,
2013-02-19 04:44:00,31.6,25.2,30.18,South,186,0.0,0.0,77,0.00,,---,0.00,0.00,VWS V14.00,2013-02-19 09:44:00,
2013-02-19 04:49:00,31.6,25.2,30.17,South,171,0.0,0.0,77,0.00,,---,0.00,0.00,VWS V14.00,2013-02-19 09:49:00,
2013-02-19 04:54:00,31.5,25.4,30.16,South,171,0.0,1.0,78,0.00,,---,0.00,0.00,VWS V14.00,2013-02-19 09:54:00,
2013-02-19 04:59:00,31.5,25.8,30.16,South,171,2.0,2.0,79,0.00,,---,0.00,0.00,VWS V14.00,2013-02-19 09:59:00,
2013-02-19 05:00:00,31.5,25.8,30.16,South,171,0.0,2.0,79,0.00,,---,0.00,0.00,VWS V14.00,2013-02-19 10:00:00,
2013-02-19 05:04:00,31.3,25.6,30.16,South,171,0.0,0.0,79,0.00,,---,0.00,0.00,VWS V14.00,2013-02-19 10:04:00,
2013-02-19 05:09:00,31.3,25.6,30.16,South,171,0.0,0.0,79,0.00,,---,0.00,0.00,VWS V14.00,2013-02-19 10:09:00,
2013-02-19 05:14:00,31.3,25.9,30.16,ESE,108,0.0,2.0,80,0.00,,---,0.00,0.00,VWS V14.00,2013-02-19 10:14:00,
2013-02-19 05:19:00,31.3,25.9,30.15,ESE,108,0.0,2.0,80,0.00,,---,0.00,0.00,VWS V14.00,2013-02-19 10:19:00,
2013-02-19 05:24:00,31.5,26.0,30.15,SSE,148,0.0,3.0,80,0.00,,---,0.00,0.00,VWS V14.00,2013-02-19 10:24:00,
2013-02-19 05:29:00,31.8,26.9,30.16,South,173,0.0,4.0,82,0.00,,---,0.00,0.00,VWS V14.00,2013-02-19 10:29:00,
2013-02-19 05:30:00,31.8,26.9,30.16,South,173,0.0,4.0,82,0.00,,---,0.00,0.00,VWS V14.00,2013-02-19 10:30:00,
2013-02-19 05:34:00,32.2,27.3,30.16,SSW,192,0.0,3.0,82,0.00,,---,0.00,0.00,VWS V14.00,2013-02-19 10:34:00,
2013-02-19 05:39:00,32.8,27.9,30.16,SSW,192,0.0,3.0,82,0.00,,---,0.00,0.00,VWS V14.00,2013-02-19 10:39:00,
2013-02-19 05:44:00,33.1,27.9,30.16,South,188,3.0,3.0,81,0.00,,---,0.00,0.00,VWS V14.00,2013-02-19 10:44:00,
2013-02-19 05:49:00,33.4,27.9,30.16,SSE,165,0.0,3.0,80,0.00,,---,0.00,0.00,VWS V14.00,2013-02-19 10:49:00,
2013-02-19 05:54:00,33.5,28.0,30.16,SSE,165,3.0,3.0,80,0.00,,---,0.00,0.00,VWS V14.00,2013-02-19 10:54:00,
2013-02-19 05:59:00,33.7,28.2,30.15,SSW,203,0.0,3.0,80,0.00,,---,0.00,0.00,VWS V14.00,2013-02-19 10:59:00,
2013-02-19 06:00:00,33.7,28.2,30.15,SSW,203,0.0,3.0,80,0.00,,---,0.00,0.00,VWS V14.00,2013-02-19 11:00:00,
2013-02-19 06:04:00,33.7,28.2,30.15,SSW,203,0.0,2.0,80,0.00,,---,0.00,0.00,VWS V14.00,2013-02-19 11:04:00,
2013-02-19 06:09:00,33.8,28.3,30.14,SSE,155,0.0,2.0,80,0.00,,---,0.00,0.00,VWS V14.00,2013-02-19 11:09:00,
2013-02-19 06:14:00,34.1,28.6,30.14,SSE,159,0.0,3.0,80,0.00,,---,0.00,0.00,VWS V14.00,2013-02-19 11:14:00,
2013-02-19 06:19:00,34.4,28.9,30.15,South,189,2.0,5.0,80,0.00,,---,0.00,0.00,VWS V14.00,2013-02-19 11:19:00,
2013-02-19 06:24:00,34.9,29.4,30.14,SSE,167,0.0,5.0,80,0.00,,---,0.00,0.00,VWS V14.00,2013-02-19 11:24:00,
2013-02-19 06:29:00,35.2,29.7,30.15,South,169,0.0,5.0,80,0.00,,---,0.00,0.00,VWS V14.00,2013-02-19 11:29:00,
2013-02-19 06:30:00,35.2,29.7,30.15,South,169,1.0,5.0,80,0.00,,---,0.00,0.00,VWS V14.00,2013-02-19 11:30:00,
2013-02-19 06:34:00,35.5,30.0,30.15,South,171,0.0,3.0,80,0.00,,---,0.00,0.00,VWS V14.00,2013-02-19 11:34:00,
2013-02-19 06:39:00,35.9,30.3,30.15,SSW,205,2.0,3.0,80,0.00,,---,0.00,0.00,VWS V14.00,2013-02-19 11:39:00,
2013-02-19 06:44:00,36.3,30.7,30.14,South,177,0.0,4.0,80,0.00,,---,0.00,0.00,VWS V14.00,2013-02-19 11:44:00,
2013-02-19 06:49:00,36.6,30.7,30.14,ESE,110,0.0,4.0,79,0.00,,---,0.00,0.00,VWS V14.00,2013-02-19 11:49:00,
2013-02-19 06:54:00,36.8,30.6,30.13,SSE,167,1.0,4.0,78,0.00,,---,0.00,5.00,VWS V14.00,2013-02-19 11:54:00,
2013-02-19 06:59:00,36.9,30.7,30.13,South,172,0.0,4.0,78,0.00,,---,0.00,9.00,VWS V14.00,2013-02-19 11:59:00,
2013-02-19 07:00:00,36.9,30.7,30.13,South,173,1.0,4.0,78,0.00,,---,0.00,9.00,VWS V14.00,2013-02-19 12:00:00,
2013-02-19 07:04:00,37.0,30.5,30.13,SSE,160,1.0,2.0,77,0.00,,---,0.00,11.00,VWS V14.00,2013-02-19 12:04:00,
2013-02-19 07:09:00,37.2,30.4,30.13,SSE,151,0.0,3.0,76,0.00,,---,0.00,14.00,VWS V14.00,2013-02-19 12:09:00,
2013-02-19 07:14:00,37.2,30.4,30.13,SSE,151,1.0,3.0,76,0.00,,---,0.00,9.00,VWS V14.00,2013-02-19 12:14:00,
2013-02-19 07:30:00,37.5,30.6,30.14,SSE,158,1.0,3.0,76,0.00,,---,0.00,10.00,VWS V14.00,2013-02-19 12:30:00,
2013-02-19 08:00:00,38.3,31.1,30.13,South,180,1.0,6.0,75,0.00,,---,0.00,20.00,VWS V14.00,2013-02-19 13:00:00,
2013-02-19 08:30:00,38.8,31.9,30.12,South,180,2.0,8.0,76,0.00,,---,0.00,32.00,VWS V14.00,2013-02-19 13:30:00,
2013-02-19 09:00:00,38.8,31.9,30.12,South,180,2.0,8.0,76,0.00,,---,0.00,32.00,VWS V14.00,2013-02-19 14:00:00,
2013-02-19 09:05:00,40.5,33.5,30.09,SSW,194,4.0,8.0,76,0.00,,---,0.00,137.00,VWS V14.00,2013-02-19 14:05:00,
2013-02-19 09:10:00,40.8,33.8,30.09,South,182,5.0,8.0,76,0.00,,---,0.00,81.00,VWS V14.00,2013-02-19 14:10:00,
2013-02-19 09:15:00,41.1,34.1,30.09,South,182,3.0,9.0,76,0.00,,---,0.00,88.00,VWS V14.00,2013-02-19 14:15:00,
2013-02-19 09:20:00,41.2,34.2,30.09,SSW,193,1.0,9.0,76,0.00,,---,0.00,86.00,VWS V14.00,2013-02-19 14:20:00,
2013-02-19 09:25:00,41.5,34.5,30.10,SSW,208,2.0,9.0,76,0.00,,---,0.00,118.00,VWS V14.00,2013-02-19 14:25:00,
2013-02-19 09:30:00,41.9,34.9,30.10,SE,143,1.0,1.0,76,0.00,,---,0.00,127.00,VWS V14.00,2013-02-19 14:30:00,
2013-02-19 09:35:00,42.5,35.5,30.09,SSE,161,2.0,7.0,76,0.00,,---,0.00,97.00,VWS V14.00,2013-02-19 14:35:00,
2013-02-19 09:40:00,42.8,35.8,30.09,South,174,9.0,9.0,76,0.00,,---,0.00,60.00,VWS V14.00,2013-02-19 14:40:00,
2013-02-19 09:45:00,43.1,36.1,30.09,SSE,154,0.0,11.0,76,0.00,,---,0.00,53.00,VWS V14.00,2013-02-19 14:45:00,
2013-02-19 09:50:00,43.2,36.2,30.09,South,171,4.0,11.0,76,0.00,,---,0.00,53.00,VWS V14.00,2013-02-19 14:50:00,
2013-02-19 09:55:00,43.3,35.9,30.09,SSW,205,1.0,11.0,75,0.00,,---,0.00,47.00,VWS V14.00,2013-02-19 14:55:00,
2013-02-19 10:00:00,43.5,36.1,30.09,SSW,203,0.0,0.0,75,0.00,,---,0.00,93.00,VWS V14.00,2013-02-19 15:00:00,
2013-02-19 10:05:00,43.8,36.4,30.08,SSW,192,0.0,5.0,75,0.00,,---,0.00,144.00,VWS V14.00,2013-02-19 15:05:00,
2013-02-19 10:10:00,44.1,36.7,30.08,SSW,192,5.0,7.0,75,0.00,,---,0.00,65.00,VWS V14.00,2013-02-19 15:10:00,
2013-02-19 10:15:00,44.2,36.8,30.08,South,185,0.0,7.0,75,0.00,,---,0.00,88.00,VWS V14.00,2013-02-19 15:15:00,
2013-02-19 10:20:00,44.3,37.2,30.08,South,185,1.0,7.0,76,0.00,,---,0.00,116.00,VWS V14.00,2013-02-19 15:20:00,
2013-02-19 10:25:00,44.6,37.5,30.08,SSW,205,2.0,7.0,76,0.00,,---,0.00,181.00,VWS V14.00,2013-02-19 15:25:00,
2013-02-19 10:30:00,44.8,38.0,30.07,South,175,1.0,2.0,77,0.00,,---,0.00,130.00,VWS V14.00,2013-02-19 15:30:00,
2013-02-19 10:35:00,44.9,38.5,30.07,South,174,3.0,3.0,78,0.00,,---,0.00,120.00,VWS V14.00,2013-02-19 15:35:00,
2013-02-19 10:40:00,44.8,39.0,30.07,SSW,198,0.0,4.0,80,0.01,,---,0.01,134.00,VWS V14.00,2013-02-19 15:40:00,
2013-02-19 10:45:00,44.8,39.3,30.07,South,175,0.0,4.0,81,0.01,,---,0.01,97.00,VWS V14.00,2013-02-19 15:45:00,
2013-02-19 10:50:00,44.9,40.1,30.07,South,175,0.0,4.0,83,0.01,,---,0.01,84.00,VWS V14.00,2013-02-19 15:50:00,
2013-02-19 10:55:00,44.9,40.4,30.07,South,175,0.0,4.0,84,0.01,,---,0.01,60.00,VWS V14.00,2013-02-19 15:55:00,
2013-02-19 11:00:00,45.1,40.9,30.07,South,175,1.0,2.0,85,0.01,,---,0.01,67.00,VWS V14.00,2013-02-19 16:00:00,
2013-02-19 11:05:00,45.1,41.2,30.07,South,175,3.0,3.0,86,0.01,,---,0.01,53.00,VWS V14.00,2013-02-19 16:05:00,
2013-02-19 11:10:00,45.2,41.3,30.06,SSW,198,2.0,10.0,86,0.01,,---,0.01,32.00,VWS V14.00,2013-02-19 16:10:00,
2013-02-19 11:15:00,45.5,41.9,30.06,South,184,1.0,10.0,87,0.02,,---,0.02,35.00,VWS V14.00,2013-02-19 16:15:00,
2013-02-19 11:20:00,46.0,42.3,30.06,SSW,199,2.0,12.0,87,0.03,,---,0.03,60.00,VWS V14.00,2013-02-19 16:20:00,
2013-02-19 11:25:00,46.4,43.0,30.05,SSW,200,4.0,12.0,88,0.03,,---,0.03,93.00,VWS V14.00,2013-02-19 16:25:00,
2013-02-19 11:30:00,46.7,43.6,30.05,SSW,209,1.0,4.0,89,0.04,,---,0.04,77.00,VWS V14.00,2013-02-19 16:30:00,
2013-02-19 11:35:00,46.8,43.7,30.04,SW,219,5.0,8.0,89,0.04,,---,0.04,91.00,VWS V14.00,2013-02-19 16:35:00,
2013-02-19 11:40:00,47.1,44.0,30.04,South,190,14.0,14.0,89,0.04,,---,0.04,153.00,VWS V14.00,2013-02-19 16:40:00,
2013-02-19 11:45:00,47.4,44.3,30.03,SSW,212,7.0,14.0,89,0.04,,---,0.04,171.00,VWS V14.00,2013-02-19 16:45:00,
2013-02-19 11:50:00,47.6,44.8,30.03,South,186,5.0,14.0,90,0.05,,---,0.05,172.00,VWS V14.00,2013-02-19 16:50:00,
2013-02-19 11:55:00,48.0,45.2,30.02,SW,225,1.0,14.0,90,0.05,,---,0.05,218.00,VWS V14.00,2013-02-19 16:55:00,
2013-02-19 12:00:00,48.3,45.5,30.02,South,188,7.0,7.0,90,0.04,,---,0.05,200.00,VWS V14.00,2013-02-19 17:00:00,
2013-02-19 12:05:00,48.6,45.8,30.01,SSE,160,3.0,14.0,90,0.04,,---,0.05,232.00,VWS V14.00,2013-02-19 17:05:00,
2013-02-19 12:10:00,49.1,46.3,30.01,SW,218,7.0,14.0,90,0.04,,---,0.05,290.00,VWS V14.00,2013-02-19 17:10:00,
2013-02-19 12:15:00,49.5,46.7,30.01,SSW,213,5.0,14.0,90,0.04,,---,0.05,287.00,VWS V14.00,2013-02-19 17:15:00,
2013-02-19 12:20:00,49.9,47.1,30.01,South,184,9.0,14.0,90,0.04,,---,0.05,243.00,VWS V14.00,2013-02-19 17:20:00,
2013-02-19 12:25:00,50.2,47.1,30.00,SSW,212,8.0,14.0,89,0.04,,---,0.05,250.00,VWS V14.00,2013-02-19 17:25:00,
2013-02-19 12:30:00,50.4,47.3,30.00,SSE,150,1.0,3.0,89,0.01,,---,0.05,288.00,VWS V14.00,2013-02-19 17:30:00,
2013-02-19 12:35:00,50.8,47.7,29.99,SSE,164,3.0,10.0,89,0.01,,---,0.05,156.00,VWS V14.00,2013-02-19 17:35:00,
2013-02-19 12:40:00,50.8,47.4,29.99,SE,142,5.0,15.0,88,0.01,,---,0.05,158.00,VWS V14.00,2013-02-19 17:40:00,
2013-02-19 12:45:00,51.0,47.6,29.99,SSW,206,8.0,15.0,88,0.01,,---,0.05,193.00,VWS V14.00,2013-02-19 17:45:00,
2013-02-19 12:50:00,51.1,47.7,29.98,South,190,8.0,15.0,88,0.01,,---,0.05,130.00,VWS V14.00,2013-02-19 17:50:00,
2013-02-19 12:55:00,51.4,47.7,29.98,South,191,1.0,15.0,87,0.01,,---,0.05,156.00,VWS V14.00,2013-02-19 17:55:00,
2013-02-19 13:00:00,51.7,47.7,29.97,WSW,244,3.0,4.0,86,0.00,,---,0.05,148.00,VWS V14.00,2013-02-19 18:00:00,
2013-02-19 13:05:00,52.0,48.0,29.96,SSW,193,14.0,14.0,86,0.00,,---,0.05,155.00,VWS V14.00,2013-02-19 18:05:00,
2013-02-19 13:10:00,52.3,48.2,29.95,SSW,199,7.0,14.0,86,0.00,,---,0.05,134.00,VWS V14.00,2013-02-19 18:10:00,
2013-02-19 13:15:00,52.5,48.4,29.94,SSW,200,15.0,19.0,86,0.00,,---,0.05,114.00,VWS V14.00,2013-02-19 18:15:00,
2013-02-19 13:20:00,52.6,48.5,29.94,SSW,201,12.0,19.0,86,0.00,,---,0.05,176.00,VWS V14.00,2013-02-19 18:20:00,
2013-02-19 13:25:00,52.6,48.5,29.93,South,182,14.0,27.0,86,0.00,,---,0.05,178.00,VWS V14.00,2013-02-19 18:25:00,
2013-02-19 13:30:00,52.9,48.8,29.92,West,265,4.0,6.0,86,0.00,,---,0.05,176.00,VWS V14.00,2013-02-19 18:30:00,
2013-02-19 13:35:00,53.1,49.3,29.92,South,182,9.0,27.0,87,0.00,,---,0.05,258.00,VWS V14.00,2013-02-19 18:35:00,
2013-02-19 13:40:00,53.2,49.4,29.92,South,169,7.0,27.0,87,0.00,,---,0.05,128.00,VWS V14.00,2013-02-19 18:40:00,
2013-02-19 13:45:00,53.2,49.4,29.92,SSE,164,11.0,27.0,87,0.00,,---,0.05,130.00,VWS V14.00,2013-02-19 18:45:00,
2013-02-19 13:50:00,53.2,49.4,29.92,SW,217,9.0,27.0,87,0.00,,---,0.05,97.00,VWS V14.00,2013-02-19 18:50:00,
2013-02-19 13:55:00,53.2,49.4,29.91,South,183,12.0,27.0,87,0.00,,---,0.05,90.00,VWS V14.00,2013-02-19 18:55:00,
2013-02-19 14:00:00,53.2,49.4,29.92,SE,136,5.0,5.0,87,0.00,,---,0.05,79.00,VWS V14.00,2013-02-19 19:00:00,
2013-02-19 14:05:00,53.2,49.1,29.91,WSW,249,7.0,16.0,86,0.00,,---,0.05,63.00,VWS V14.00,2013-02-19 19:05:00,
2013-02-19 14:10:00,53.2,49.1,29.91,SSW,210,7.0,20.0,86,0.00,,---,0.05,56.00,VWS V14.00,2013-02-19 19:10:00,
2013-02-19 14:15:00,53.2,49.1,29.91,South,188,8.0,20.0,86,0.00,,---,0.05,51.00,VWS V14.00,2013-02-19 19:15:00,
2013-02-19 14:20:00,53.1,49.3,29.91,WSW,238,5.0,20.0,87,0.00,,---,0.05,46.00,VWS V14.00,2013-02-19 19:20:00,
2013-02-19 14:25:00,52.9,49.5,29.91,SW,216,4.0,20.0,88,0.00,,---,0.05,47.00,VWS V14.00,2013-02-19 19:25:00,
2013-02-19 14:30:00,52.8,49.7,29.91,South,179,5.0,5.0,89,0.01,,---,0.06,60.00,VWS V14.00,2013-02-19 19:30:00,
2013-02-19 14:35:00,52.6,49.8,29.90,South,190,4.0,13.0,90,0.02,,---,0.07,107.00,VWS V14.00,2013-02-19 19:35:00,
2013-02-19 14:40:00,52.5,50.0,29.91,SW,228,3.0,13.0,91,0.02,,---,0.07,40.00,VWS V14.00,2013-02-19 19:40:00,
2013-02-19 14:45:00,52.5,50.0,29.90,South,191,7.0,13.0,91,0.02,,---,0.07,40.00,VWS V14.00,2013-02-19 19:45:00,
2013-02-19 14:50:00,52.3,49.8,29.90,WNW,284,0.0,13.0,91,0.02,,---,0.07,47.00,VWS V14.00,2013-02-19 19:50:00,
2013-02-19 14:55:00,52.3,50.0,29.90,West,272,4.0,13.0,92,0.02,,---,0.07,40.00,VWS V14.00,2013-02-19 19:55:00,
2013-02-19 15:00:00,52.3,50.0,29.90,WSW,238,2.0,2.0,92,0.02,,---,0.07,39.00,VWS V14.00,2013-02-19 20:00:00,
2013-02-19 15:05:00,52.3,50.0,29.89,SW,215,0.0,11.0,92,0.02,,---,0.07,49.00,VWS V14.00,2013-02-19 20:05:00,
2013-02-19 15:10:00,52.2,50.0,29.90,SSE,167,7.0,11.0,92,0.02,,---,0.07,62.00,VWS V14.00,2013-02-19 20:10:00,
2013-02-19 15:15:00,52.3,50.0,29.89,South,182,8.0,11.0,92,0.02,,---,0.07,37.00,VWS V14.00,2013-02-19 20:15:00,
2013-02-19 15:20:00,52.3,50.3,29.89,SSW,212,6.0,11.0,93,0.03,,---,0.08,49.00,VWS V14.00,2013-02-19 20:20:00,
2013-02-19 15:25:00,52.3,50.3,29.90,WSW,257,5.0,11.0,93,0.03,,---,0.08,30.00,VWS V14.00,2013-02-19 20:25:00,
2013-02-19 15:30:00,52.2,50.2,29.89,South,183,2.0,2.0,93,0.02,,---,0.08,32.00,VWS V14.00,2013-02-19 20:30:00,
2013-02-19 15:35:00,52.2,50.2,29.89,WSW,249,4.0,11.0,93,0.02,,---,0.08,32.00,VWS V14.00,2013-02-19 20:35:00,
2013-02-19 15:40:00,52.2,50.2,29.89,SW,232,6.0,11.0,93,0.02,,---,0.08,33.00,VWS V14.00,2013-02-19 20:40:00,
2013-02-19 15:45:00,52.2,50.2,29.89,SSW,207,5.0,11.0,93,0.02,,---,0.08,83.00,VWS V14.00,2013-02-19 20:45:00,
2013-02-19 15:50:00,52.2,50.2,29.89,WSW,240,4.0,11.0,93,0.02,,---,0.08,53.00,VWS V14.00,2013-02-19 20:50:00,
2013-02-19 15:55:00,52.2,50.2,29.88,WSW,238,4.0,11.0,93,0.02,,---,0.08,90.00,VWS V14.00,2013-02-19 20:55:00,
2013-02-19 16:00:00,52.2,50.2,29.88,SSW,209,6.0,7.0,93,0.01,,---,0.08,62.00,VWS V14.00,2013-02-19 21:00:00,
2013-02-19 16:05:00,52.2,50.2,29.88,South,178,2.0,9.0,93,0.01,,---,0.08,44.00,VWS V14.00,2013-02-19 21:05:00,
2013-02-19 16:10:00,52.2,50.2,29.88,WSW,243,7.0,9.0,93,0.01,,---,0.08,26.00,VWS V14.00,2013-02-19 21:10:00,
2013-02-19 16:15:00,52.0,50.0,29.88,WSW,238,7.0,14.0,93,0.01,,---,0.08,63.00,VWS V14.00,2013-02-19 21:15:00,
2013-02-19 16:20:00,52.2,50.2,29.88,West,269,0.0,14.0,93,0.01,,---,0.08,26.00,VWS V14.00,2013-02-19 21:20:00,
2013-02-19 16:25:00,52.0,49.8,29.88,WNW,282,6.0,14.0,92,0.01,,---,0.08,14.00,VWS V14.00,2013-02-19 21:25:00,
2013-02-19 16:30:00,52.0,49.8,29.88,West,274,0.0,0.0,92,0.00,,---,0.08,46.00,VWS V14.00,2013-02-19 21:30:00,
2013-02-19 16:35:00,52.0,49.8,29.88,WSW,248,8.0,12.0,92,0.00,,---,0.08,44.00,VWS V14.00,2013-02-19 21:35:00,
2013-02-19 16:40:00,51.9,49.7,29.88,SW,219,6.0,12.0,92,0.00,,---,0.08,28.00,VWS V14.00,2013-02-19 21:40:00,
2013-02-19 16:45:00,51.9,49.7,29.88,SW,219,4.0,12.0,92,0.00,,---,0.08,21.00,VWS V14.00,2013-02-19 21:45:00,
2013-02-19 16:50:00,51.9,49.7,29.88,SW,227,0.0,12.0,92,0.00,,---,0.08,26.00,VWS V14.00,2013-02-19 21:50:00,
2013-02-19 16:55:00,51.9,49.7,29.88,WSW,254,0.0,12.0,92,0.00,,---,0.08,26.00,VWS V14.00,2013-02-19 21:55:00,
2013-02-19 17:00:00,51.7,49.2,29.88,SSW,204,2.0,2.0,91,0.00,,---,0.08,21.00,VWS V14.00,2013-02-19 22:00:00,
2013-02-19 17:05:00,51.7,49.2,29.88,SE,144,1.0,7.0,91,0.00,,---,0.08,19.00,VWS V14.00,2013-02-19 22:05:00,
2013-02-19 17:10:00,51.6,49.1,29.88,WSW,238,2.0,7.0,91,0.00,,---,0.08,16.00,VWS V14.00,2013-02-19 22:10:00,
2013-02-19 17:15:00,51.6,49.1,29.88,SW,228,1.0,8.0,91,0.00,,---,0.08,28.00,VWS V14.00,2013-02-19 22:15:00,
2013-02-19 17:20:00,51.4,48.6,29.88,NW,312,3.0,10.0,90,0.00,,---,0.08,21.00,VWS V14.00,2013-02-19 22:20:00,
2013-02-19 17:25:00,51.4,48.6,29.88,South,182,1.0,10.0,90,0.00,,---,0.08,14.00,VWS V14.00,2013-02-19 22:25:00,
2013-02-19 17:30:00,51.4,48.6,29.88,South,189,8.0,8.0,90,0.00,,---,0.08,9.00,VWS V14.00,2013-02-19 22:30:00,
2013-02-19 17:35:00,51.3,48.2,29.89,SSW,192,4.0,8.0,89,0.00,,---,0.08,9.00,VWS V14.00,2013-02-19 22:35:00,
2013-02-19 17:40:00,51.3,48.2,29.89,West,273,3.0,8.0,89,0.00,,---,0.08,7.00,VWS V14.00,2013-02-19 22:40:00,
2013-02-19 17:45:00,51.3,48.2,29.89,WSW,247,0.0,8.0,89,0.00,,---,0.08,7.00,VWS V14.00,2013-02-19 22:45:00,
2013-02-19 17:50:00,51.1,48.0,29.89,NNW,330,0.0,8.0,89,0.00,,---,0.08,5.00,VWS V14.00,2013-02-19 22:50:00,
2013-02-19 17:55:00,51.1,48.0,29.89,NW,310,0.0,8.0,89,0.00,,---,0.08,0.00,VWS V14.00,2013-02-19 22:55:00,
2013-02-19 18:00:00,51.1,48.0,29.90,West,259,0.0,8.0,89,0.00,,---,0.08,0.00,VWS V14.00,2013-02-19 23:00:00,
2013-02-19 18:05:00,51.0,47.9,29.90,West,259,1.0,2.0,89,0.00,,---,0.08,0.00,VWS V14.00,2013-02-19 23:05:00,
2013-02-19 18:10:00,51.0,47.9,29.90,West,259,0.0,3.0,89,0.00,,---,0.08,0.00,VWS V14.00,2013-02-19 23:10:00,
2013-02-19 18:15:00,51.0,47.9,29.91,West,259,1.0,3.0,89,0.00,,---,0.08,0.00,VWS V14.00,2013-02-19 23:15:00,
2013-02-19 18:20:00,50.8,47.7,29.91,WNW,287,1.0,3.0,89,0.00,,---,0.08,0.00,VWS V14.00,2013-02-19 23:20:00,
2013-02-19 18:25:00,50.7,47.6,29.91,West,265,0.0,4.0,89,0.00,,---,0.08,0.00,VWS V14.00,2013-02-19 23:25:00,
2013-02-19 18:30:00,50.4,47.0,29.91,West,265,0.0,4.0,88,0.00,,---,0.08,0.00,VWS V14.00,2013-02-19 23:30:00,
2013-02-19 18:35:00,50.1,46.7,29.92,ESE,121,0.0,3.0,88,0.00,,---,0.08,0.00,VWS V14.00,2013-02-19 23:35:00,
2013-02-19 18:40:00,49.9,46.5,29.92,West,279,1.0,3.0,88,0.00,,---,0.08,0.00,VWS V14.00,2013-02-19 23:40:00,
2013-02-19 18:45:00,49.8,46.4,29.92,WNW,286,4.0,6.0,88,0.00,,---,0.08,0.00,VWS V14.00,2013-02-19 23:45:00,
2013-02-19 18:50:00,49.6,46.2,29.93,WNW,291,2.0,6.0,88,0.00,,---,0.08,0.00,VWS V14.00,2013-02-19 23:50:00,
2013-02-19 18:55:00,49.4,45.7,29.93,WSW,239,3.0,6.0,87,0.00,,---,0.08,0.00,VWS V14.00,2013-02-19 23:55:00,
2013-02-19 19:00:00,49.2,45.5,29.93,West,275,2.0,6.0,87,0.00,,---,0.08,0.00,VWS V14.00,2013-02-20 00:00:00,
2013-02-19 19:05:00,48.9,44.9,29.94,West,276,0.0,4.0,86,0.00,,---,0.08,0.00,VWS V14.00,2013-02-20 00:05:00,
2013-02-19 19:10:00,48.8,44.5,29.94,WNW,289,0.0,4.0,85,0.00,,---,0.08,0.00,VWS V14.00,2013-02-20 00:10:00,
2013-02-19 19:15:00,48.8,44.5,29.94,WNW,286,0.0,4.0,85,0.00,,---,0.08,0.00,VWS V14.00,2013-02-20 00:15:00,
2013-02-19 19:20:00,48.6,44.0,29.94,WSW,250,1.0,4.0,84,0.00,,---,0.08,0.00,VWS V14.00,2013-02-20 00:20:00,
2013-02-19 19:25:00,48.3,43.7,29.95,West,273,1.0,5.0,84,0.00,,---,0.08,0.00,VWS V14.00,2013-02-20 00:25:00,
2013-02-19 19:30:00,48.0,43.4,29.95,WSW,254,4.0,5.0,84,0.00,,---,0.08,0.00,VWS V14.00,2013-02-20 00:30:00,
2013-02-19 19:35:00,47.7,43.1,29.95,WNW,293,1.0,4.0,84,0.00,,---,0.08,0.00,VWS V14.00,2013-02-20 00:35:00,
2013-02-19 19:40:00,47.6,42.7,29.96,WNW,284,0.0,6.0,83,0.00,,---,0.08,0.00,VWS V14.00,2013-02-20 00:40:00,
2013-02-19 19:45:00,47.4,42.5,29.96,West,281,0.0,6.0,83,0.00,,---,0.08,0.00,VWS V14.00,2013-02-20 00:45:00,
2013-02-19 19:50:00,47.4,42.2,29.96,NW,308,0.0,6.0,82,0.00,,---,0.08,0.00,VWS V14.00,2013-02-20 00:50:00,
2013-02-19 19:55:00,47.6,42.4,29.96,WNW,286,2.0,6.0,82,0.00,,---,0.08,0.00,VWS V14.00,2013-02-20 00:55:00,
2013-02-19 20:00:00,47.6,42.4,29.96,WSW,256,0.0,8.0,82,0.00,,---,0.08,0.00,VWS V14.00,2013-02-20 01:00:00,
2013-02-19 20:05:00,47.7,42.5,29.96,West,261,3.0,4.0,82,0.00,,---,0.08,0.00,VWS V14.00,2013-02-20 01:05:00,
2013-02-19 20:10:00,47.6,42.4,29.96,West,259,0.0,4.0,82,0.00,,---,0.08,0.00,VWS V14.00,2013-02-20 01:10:00,
2013-02-19 20:15:00,47.6,42.4,29.96,West,262,3.0,5.0,82,0.00,,---,0.08,0.00,VWS V14.00,2013-02-20 01:15:00,
2013-02-19 20:20:00,47.4,42.2,29.96,West,262,0.0,5.0,82,0.00,,---,0.08,0.00,VWS V14.00,2013-02-20 01:20:00,
2013-02-19 20:25:00,47.1,41.9,29.96,NW,316,0.0,5.0,82,0.00,,---,0.08,0.00,VWS V14.00,2013-02-20 01:25:00,
2013-02-19 20:30:00,47.0,41.8,29.97,NW,320,1.0,5.0,82,0.00,,---,0.08,0.00,VWS V14.00,2013-02-20 01:30:00,
2013-02-19 20:35:00,46.8,41.6,29.97,WNW,287,2.0,3.0,82,0.00,,---,0.08,0.00,VWS V14.00,2013-02-20 01:35:00,
2013-02-19 20:40:00,46.5,41.6,29.97,West,269,3.0,6.0,83,0.00,,---,0.08,0.00,VWS V14.00,2013-02-20 01:40:00,
2013-02-19 20:45:00,46.4,41.5,29.97,West,264,3.0,6.0,83,0.00,,---,0.08,0.00,VWS V14.00,2013-02-20 01:45:00,
2013-02-19 20:50:00,46.1,41.2,29.97,West,264,0.0,6.0,83,0.00,,---,0.08,0.00,VWS V14.00,2013-02-20 01:50:00,
2013-02-19 20:55:00,46.0,41.1,29.97,West,264,0.0,6.0,83,0.00,,---,0.08,0.00,VWS V14.00,2013-02-20 01:55:00,
2013-02-19 21:00:00,45.8,41.2,29.97,West,264,0.0,6.0,84,0.00,,---,0.08,0.00,VWS V14.00,2013-02-20 02:00:00,
2013-02-19 21:05:00,45.7,41.2,29.97,West,264,0.0,2.0,84,0.00,,---,0.08,0.00,VWS V14.00,2013-02-20 02:05:00,
2013-02-19 21:10:00,45.5,41.3,29.97,West,264,0.0,2.0,85,0.00,,---,0.08,0.00,VWS V14.00,2013-02-20 02:10:00,
2013-02-19 21:15:00,45.2,41.0,29.97,West,264,0.0,2.0,85,0.00,,---,0.08,0.00,VWS V14.00,2013-02-20 02:15:00,
2013-02-19 21:20:00,45.1,40.9,29.97,West,264,0.0,2.0,85,0.00,,---,0.08,0.00,VWS V14.00,2013-02-20 02:20:00,
2013-02-19 21:25:00,44.9,41.0,29.97,West,264,0.0,2.0,86,0.00,,---,0.08,0.00,VWS V14.00,2013-02-20 02:25:00,
2013-02-19 21:30:00,44.8,40.9,29.97,West,264,0.0,2.0,86,0.00,,---,0.08,0.00,VWS V14.00,2013-02-20 02:30:00,
2013-02-19 21:35:00,44.6,40.7,29.97,West,264,0.0,1.0,86,0.00,,---,0.08,0.00,VWS V14.00,2013-02-20 02:35:00,
2013-02-19 21:40:00,44.5,40.9,29.98,West,264,0.0,1.0,87,0.00,,---,0.08,0.00,VWS V14.00,2013-02-20 02:40:00,
2013-02-19 21:45:00,44.3,40.7,29.98,West,264,0.0,1.0,87,0.00,,---,0.08,0.00,VWS V14.00,2013-02-20 02:45:00,
2013-02-19 21:50:00,44.2,40.6,29.98,West,264,0.0,1.0,87,0.00,,---,0.08,0.00,VWS V14.00,2013-02-20 02:50:00,
2013-02-19 21:55:00,44.1,40.5,29.98,West,264,0.0,1.0,87,0.00,,---,0.08,0.00,VWS V14.00,2013-02-20 02:55:00,
2013-02-19 22:00:00,43.9,40.3,29.98,West,264,0.0,1.0,87,0.00,,---,0.08,0.00,VWS V14.00,2013-02-20 03:00:00,
2013-02-19 22:05:00,43.8,40.5,29.98,West,264,0.0,0.0,88,0.00,,---,0.08,0.00,VWS V14.00,2013-02-20 03:05:00,
2013-02-19 22:10:00,43.6,40.3,29.98,West,264,0.0,0.0,88,0.00,,---,0.08,0.00,VWS V14.00,2013-02-20 03:10:00,
2013-02-19 22:15:00,43.5,40.2,29.98,West,264,0.0,0.0,88,0.00,,---,0.08,0.00,VWS V14.00,2013-02-20 03:15:00,
2013-02-19 22:20:00,43.3,40.0,29.98,West,264,0.0,0.0,88,0.00,,---,0.08,0.00,VWS V14.00,2013-02-20 03:20:00,
2013-02-19 22:25:00,43.2,40.2,29.98,West,264,0.0,0.0,89,0.00,,---,0.08,0.00,VWS V14.00,2013-02-20 03:25:00,
2013-02-19 22:30:00,43.2,40.2,29.98,West,264,0.0,0.0,89,0.00,,---,0.08,0.00,VWS V14.00,2013-02-20 03:30:00,
2013-02-19 22:35:00,43.1,40.1,29.98,West,264,0.0,0.0,89,0.00,,---,0.08,0.00,VWS V14.00,2013-02-20 03:35:00,
2013-02-19 22:40:00,43.1,40.1,29.98,West,264,0.0,0.0,89,0.00,,---,0.08,0.00,VWS V14.00,2013-02-20 03:40:00,
2013-02-19 22:45:00,42.9,39.9,29.98,West,264,0.0,0.0,89,0.00,,---,0.08,0.00,VWS V14.00,2013-02-20 03:45:00,
2013-02-19 22:50:00,42.8,39.8,29.98,West,264,0.0,0.0,89,0.00,,---,0.08,0.00,VWS V14.00,2013-02-20 03:50:00,
2013-02-19 22:55:00,42.8,39.8,29.98,West,264,0.0,0.0,89,0.00,,---,0.08,0.00,VWS V14.00,2013-02-20 03:55:00,
2013-02-19 23:00:00,42.6,39.9,29.98,West,264,0.0,1.0,90,0.00,,---,0.08,0.00,VWS V14.00,2013-02-20 04:00:00,
2013-02-19 23:05:00,42.5,39.5,29.98,West,264,0.0,0.0,89,0.00,,---,0.08,0.00,VWS V14.00,2013-02-20 04:05:00,
2013-02-19 23:10:00,42.3,39.3,29.98,West,264,0.0,0.0,89,0.00,,---,0.08,0.00,VWS V14.00,2013-02-20 04:10:00,
2013-02-19 23:15:00,42.1,39.4,29.98,West,264,0.0,0.0,90,0.00,,---,0.08,0.00,VWS V14.00,2013-02-20 04:15:00,
2013-02-19 23:20:00,41.9,39.2,29.98,West,264,1.0,2.0,90,0.00,,---,0.08,0.00,VWS V14.00,2013-02-20 04:20:00,
2013-02-19 23:25:00,41.8,39.1,29.98,West,264,0.0,2.0,90,0.00,,---,0.08,0.00,VWS V14.00,2013-02-20 04:25:00,
2013-02-19 23:30:00,41.6,38.9,29.98,West,264,0.0,2.0,90,0.00,,---,0.08,0.00,VWS V14.00,2013-02-20 04:30:00,
2013-02-19 23:35:00,41.5,38.8,29.98,West,264,0.0,2.0,90,0.00,,---,0.08,0.00,VWS V14.00,2013-02-20 04:35:00,
2013-02-19 23:40:00,41.3,38.9,29.98,West,264,0.0,2.0,91,0.00,,---,0.08,0.00,VWS V14.00,2013-02-20 04:40:00,
2013-02-19 23:45:00,41.2,38.8,29.98,West,264,1.0,3.0,91,0.00,,---,0.08,0.00,VWS V14.00,2013-02-20 04:45:00,
2013-02-19 23:50:00,41.2,38.8,29.97,West,264,0.0,3.0,91,0.00,,---,0.08,0.00,VWS V14.00,2013-02-20 04:50:00,
2013-02-19 23:55:00,41.1,38.7,29.98,West,264,0.0,3.0,91,0.00,,---,0.08,0.00,VWS V14.00,2013-02-20 04:55:00,